FENGYUN 1C DEB

Satellite information

Favourite Embed

Satellite Type and Status

DEBRISIN ORBIT

Key statistics

Satellite FENGYUN 1C DEB at a glance.

Uptime

9555

Days in orbit

Revolutions

≈ 14.1

Per day

Orbit

SSO

Sun Synchronous Orbit

Inclination

98.6

Latest

Satellite identification and parameters

Extended collection of information and parameters for FENGYUN 1C DEB.

Object identification

Identified? True

Debris? True

Object name: FENGYUN 1C DEB

International designator: 1999-025CGJ

Object number (NORAD): 31783

Object ID (CCSDS): 31783

Country: PEOPLES REPUBLIC OF CHINA (PRC)

Current information (Y/N): Y

RCS size: SMALL

Orbital parameters

Period: 102.239 minutes

Inclination: 98.6081 deg

SMA: 7242.751 km

Apoapsis: 940.482 km

Periapsis: 788.749 km

RAAN: 202.8529 deg

Eccentricy: 0.0104748

Argument of periapsis: 142.1219 deg

Mean anomaly: 247.6604 deg

Mean motion: 14.08469556 rev/day

Mean motion (dot): 0.00000405 rev/day2

B* drag term: 0.00024717 1/REarth

Two-line elements (TLE)

Creation date: July 6, 2025, 6:05 p.m.

Reference frame: TEME

Reference center: EARTH

Epoch: July 6, 2025, 12:20 a.m. UTC

TLE line 0: 0 FENGYUN 1C DEB

TLE line 1: 1 31783U 99025CGJ 25187.01433618 .00000405 00000-0 24717-3 0 9999

TLE line 2: 2 31783 98.6081 202.8529 0104748 142.1219 247.6604 14.08469556869727

Live tracking on map

Real-time ground track for satellite FENGYUN 1C DEB.

In-orbit conjunctions

A list of the most updated potential collisions computed for object FENGYUN 1C DEB.

Target Orbit TCA Probability of collision Miss distance Type
SCOUT X-4 R/B LEO 2025-03-29 02:18:06 0.0002071296 243.0 (m) ROCKET BODY
SL-16 DEB LEO 2024-12-25 00:38:36 0.0001136248 203.0 (m) DEBRIS
FENGYUN 1C DEB SSO 2024-06-09 12:05:47 0.0001840558 341.0 (m) DEBRIS

Associated space launch

Chinese polar orbiting meteorological satellite

FENGYUN 1C DEB was lifted into orbit during the mission ‘Long March 4B | Feng Yun 1C’, on board a Long March 4B space rocket.

The launch took place on May 10, 1999, 1:33 a.m. from Launch Complex 7.

For more information about the launch, click the button.

Launch to space Long March 4B | Feng Yun 1C
Long March 4B | Feng Yun 1C

Agency: N/A

Status: Launch Successful

Launch date: May 10, 1999, 1:33 a.m. UTC

Rocket: Long March 4B

Launch pad: Launch Complex 7

Location: Taiyuan Satellite Launch Center, People's Republic of China

...

Latest news about this satellite

There are no fresh news available about this satellite. Check back as we update our databases every day.


Newsletter sign-up

Weekly statistics, charts and insights to help you stay on top of the space industry.